Weather observations for the past three days for
Shreveport, Shreveport Regional Airport
Imperial (Metric)
Date Time (cdt) Wind (mph) Vis. (mi.) Weather Sky Cond. Temperature (ºF) Relative Humidity Wind Chill (°F) Heat Index (°F) Pressure Precipitation (in)
Air Dwpt 6 hour altimeter (in) sea level (mb) 1 hr 3 hr 6 hr
Max. Min.
21 02:56 Calm 10.00 Partly Cloudy FEW180 SCT270 77 68 74% 79 30.14 0.0
21 01:56 E 3 10.00 Partly Cloudy SCT270 75.2 68 78% 76 30.16 0.0
21 00:56 SE 5 10.00 A Few Clouds FEW180 78.8 68 70% 81 30.16 0.0
20 23:56 E 7 10.00 A Few Clouds FEW180 80.6 68 66% 83 30.15 0.0
20 22:56 E 5 10.00 A Few Clouds FEW180 82.4 69.8 66% 86 30.14 0.0
20 21:56 E 7 10.00 A Few Clouds FEW190 82.4 69.8 66% 86 30.13 0.0
20 20:56 E 8 10.00 A Few Clouds FEW250 84.2 68 58% 87 30.11 0.0
20 19:56 E 12 10.00 Partly Cloudy SCT250 89.6 69.8 52% 95 30.11 0.0
20 18:56 E 12 10.00 Partly Cloudy FEW050 FEW080 SCT220 91.4 69.8 49% 97 30.1 0.0
20 17:56 E 10 10.00 Partly Cloudy FEW050 FEW065 SCT210 93.2 69.8 47% 99 30.11 0.0
20 16:56 E 12 10.00 Partly Cloudy FEW048 SCT065 SCT210 93.2 69.8 47% 99 30.12 0.0
20 15:56 E 10 G 20 10.00 Partly Cloudy SCT055 93.2 71.6 50% 101 30.13 0.0
20 14:56 NE 6 10.00 Mostly Cloudy BKN047 BKN065 91.4 71.6 52% 99 30.15 0.0
20 13:56 E 9 10.00 Mostly Cloudy BKN045 93.2 73.4 53% 103 30.16 0.0
20 12:56 E 8 10.00 Mostly Cloudy FEW038 BKN049 89.6 71.6 55% 96 30.17 0.0
20 11:56 SE 10 10.00 Mostly Cloudy BKN043 89.6 71.6 55% 96 30.19 0.0
20 10:56 E 14 10.00 Mostly Cloudy BKN033 89.6 71.6 55% 96 30.18 0.0
20 09:56 E 13 G 18 10.00 Partly Cloudy SCT021 SCT210 87.8 71.6 59% 94 30.18 0.0
20 08:56 E 9 10.00 A Few Clouds FEW014 84.2 73.4 70% 91 30.17 0.0
20 07:56 E 10 10.00 A Few Clouds FEW280 80.6 73.4 79% 85 30.15 0.0
20 06:56 E 7 10.00 A Few Clouds FEW055 78.8 71.6 79% 82 30.13 0.0
20 05:56 E 6 10.00 Mostly Cloudy FEW037 SCT065 BKN110 78.8 71.6 79% 82 30.12 0.0
20 04:56 E 9 10.00 Mostly Cloudy SCT065 BKN110 78.8 73.4 84% 82 30.11 0.0
20 03:56 E 6 10.00 Overcast OVC065 80.6 73.4 79% 85 30.11 0.0
20 02:56 E 6 10.00 Mostly Cloudy FEW045 SCT055 BKN150 80.6 71.6 74% 85 30.1 0.0
20 01:56 E 7 10.00 Overcast FEW049 SCT060 BKN075 OVC150 80.6 73.4 79% 85 30.1 0.0
20 00:56 E 7 10.00 Overcast SCT045 BKN150 OVC280 80.6 73.4 79% 85 30.1 0.0
19 23:56 E 8 10.00 Overcast SCT040 BKN050 BKN150 OVC280 82.4 73.4 74% 88 30.1 0.0
19 22:56 E 8 10.00 Partly Cloudy SCT180 SCT250 82.4 73.4 74% 88 30.09 0.0
19 21:56 E 7 10.00 Mostly Cloudy SCT180 BKN250 82.4 73.4 74% 88 30.07 0.0
19 20:56 NE 10 10.00 Mostly Cloudy SCT180 BKN250 84.2 73.4 70% 91 30.06 0.0
19 19:56 NE 9 G 20 10.00 Mostly Cloudy FEW120 BKN180 BKN250 84.2 73.4 70% 91 30.04 0.0
19 18:56 NE 8 10.00 Mostly Cloudy FEW045 BKN180 BKN250 86 75.2 70% 95 30.03 0.0
19 17:56 NE 10 10.00 Mostly Cloudy FEW040 BKN150 BKN250 87.8 73.4 62% 96 30.03 0.0
19 16:56 NE 10 10.00 Mostly Cloudy FEW030 FEW050 SCT150 BKN250 87.8 75.2 66% 98 30.03 0.0
19 15:56 N 9 10.00 Mostly Cloudy SCT030 SCT150 BKN250 87.8 75.2 66% 98 30.04 0.0
19 14:56 N 12 10.00 Overcast FEW030 SCT150 OVC250 87.8 73.4 62% 96 30.05 0.0
19 13:56 E 12 G 24 10.00 Overcast FEW030 SCT120 OVC150 89.6 73.4 59% 98 30.06 0.0
19 12:56 E 9 10.00 Overcast FEW030 BKN120 OVC160 89.6 73.4 59% 98 30.08 0.0
19 11:56 E 8 10.00 Overcast FEW040 SCT120 OVC150 84.2 73.4 70% 91 30.08 0.0
19 10:56 NE 8 10.00 Overcast SCT100 OVC150 82.4 73.4 74% 88 30.08 0.0
19 09:56 E 7 10.00 Light Rain FEW080 OVC095 80.6 73.4 79% 85 30.07 0.0
19 08:56 E 7 10.00 Light Rain BKN110 OVC150 78.8 71.6 79% 82 30.06 0.0
19 07:56 E 6 10.00 Overcast SCT120 OVC150 78.8 71.6 79% 82 30.03 0.0
19 06:56 E 7 10.00 Overcast FEW100 OVC150 78.8 71.6 79% 82 30.02 0.0
19 05:56 NE 7 10.00 Overcast SCT120 OVC150 78.8 71.6 79% 82 30 0.0
19 04:56 NE 9 10.00 Overcast SCT100 OVC150 78.8 71.6 79% 82 29.99 0.0
19 03:56 E 7 10.00 Overcast OVC150 78.8 71.6 79% 82 29.97 0.0
19 02:56 E 7 10.00 Overcast OVC150 78.8 73.4 84% 82 29.96 0.0
19 01:56 E 7 10.00 Mostly Cloudy BKN150 78.8 73.4 84% 82 29.95 0.0
19 00:56 E 9 10.00 Mostly Cloudy BKN150 BKN280 78.8 73.4 84% 82 29.96 0.0
18 23:56 E 6 10.00 Overcast BKN150 OVC280 78.8 73.4 84% 82 29.97 0.0
18 22:56 SE 8 10.00 Overcast BKN130 OVC280 80.6 73.4 79% 85 29.97 0.0
18 21:56 SE 12 10.00 Mostly Cloudy SCT130 BKN280 80.6 71.6 74% 85 29.96 0.0
18 20:56 SE 8 10.00 Mostly Cloudy SCT110 SCT180 BKN280 82.4 71.6 70% 87 29.94 0.0
18 19:56 SE 7 10.00 Mostly Cloudy FEW033CB SCT110 BKN280 82.4 73.4 74% 88 29.94 0.0
18 18:56 SE 21 G 32 10.00 Mostly Cloudy and Breezy FEW033CB SCT050 BKN080 BKN250 86 69.8 59% 91 29.92 0.0
18 17:56 SE 14 G 24 10.00 Mostly Cloudy FEW041CB SCT150 BKN250 89.6 71.6 55% 96 29.92 0.0
18 16:56 SE 13 G 20 10.00 Partly Cloudy FEW041TCU SCT180 SCT250 91.4 71.6 52% 99 29.91 0.0
18 15:56 E 15 G 22 10.00 Mostly Cloudy FEW043TCU SCT180 BKN250 91.4 71.6 52% 99 29.92 0.0
18 14:56 E 15 G 22 10.00 Mostly Cloudy SCT033 BKN130 BKN270 91.4 73.4 56% 100 29.92 0.0
18 13:56 SE 13 G 22 10.00 Mostly Cloudy SCT027 BKN130 BKN270 89.6 73.4 59% 98 29.93 0.0
18 12:56 E 9 10.00 Mostly Cloudy SCT023 BKN120 BKN270 87.8 73.4 62% 96 29.95 0.0
18 11:56 SE 12 10.00 Mostly Cloudy FEW024 BKN120 BKN270 86 71.6 62% 92 29.95 0.0
18 10:56 E 7 10.00 Mostly Cloudy FEW022 BKN120 BKN270 84.2 71.6 66% 90 29.95 0.0
18 09:56 SE 5 10.00 Mostly Cloudy SCT011 BKN120 BKN270 82.4 73.4 74% 88 29.94 0.0
18 08:56 E 8 10.00 Mostly Cloudy BKN009 BKN110 BKN270 78.8 73.4 84% 82 29.94 0.0
18 07:56 E 9 10.00 Overcast BKN008 OVC100 78.8 73.4 84% 82 29.93 0.0
18 06:56 E 6 10.00 Mostly Cloudy SCT006 SCT010 BKN150 BKN280 75.2 71.6 89% 75 29.91 0.0
18 05:56 E 6 10.00 Mostly Cloudy SCT008 BKN010 BKN280 75.2 71.6 89% 75 29.91 0.0
18 04:56 SE 5 10.00 Mostly Cloudy BKN013 BKN280 75.2 71.6 89% 75 29.91 0.0
18 03:56 SE 3 10.00 Mostly Cloudy SCT150 BKN280 75.2 71.6 89% 75 29.91 0.0
Date Time (cdt) Wind (mph) Vis. (mi.) Weather Sky Cond. Air Dwpt Max. Min. Relative Humidity Wind Chill (°F) Heat Index (°F) altimeter (in) sea level (mb) 1 hr 3 hr 6 hr
6 hour
Temperature (ºF) Pressure Precipitation (in)